Location: Astronomy Club of Akron Observatory
(40.9700°N, 81.5606°W)
Time: 16:14:35
(UTC-04:00)

ISS - Pass Details

Date: 17 July 2018
Orbit: 402 x 408 km, 51.6° (Epoch: 17 July)

Event Time Altitude Azimuth Distance (km) Brightness Sun altitude
Exits shadow 01:51:38 16° 332° (NNW) 1,163 -0.9 -27.7°
Maximum altitude 01:52:13 17° 346° (NNW) 1,137 -0.8 -27.7°
Drops below altitude 10° 01:54:26 10° 28° (NNE) 1,469 -0.2 -27.6°
Sets 01:57:04 0° 50° (NE) 2,333 0.7 -27.6°
